Location: Martz Observatory
(42.0083°N, 79.0667°W)
Time: 06:28:32
(UTC-04:00)

Daily predictions for brighter satellites

Satellite Brightness Start Highest point End
(mag) Time Altitude Azimuth Time Altitude Azimuth Time Altitude Azimuth
Meteor 1-23 Rocket 4.4 20:11:48 10° N 20:17:29 86° W 20:23:12 10° S
FENGYUN 3A 4.0 20:13:06 10° SE 20:18:12 47° ENE 20:23:20 10° N
BREEZE-M DEB (TANK) 4.3 20:16:41 10° NW 20:19:21 32° NNE 20:25:30 10° E
Cosmos 1656 4.3 20:14:36 10° SSE 20:19:33 33° ESE 20:24:29 10° NE
Cosmos 1315 Rocket 4.3 20:16:46 10° SSW 20:20:36 43° WNW 20:24:30 10° N
Cosmos 1934 Rocket 4.0 20:15:50 10° S 20:21:55 71° E 20:28:09 10° NNE
Helios 1B rocket 2.8 20:21:00 10° N 20:25:07 70° WNW 20:29:11 10° SSW
Cosmos 1544 Rocket 3.6 20:21:51 10° S 20:26:15 88° W 20:30:42 10° N
DELTA 2 R/B (1) 3.9 20:21:07 10° W 20:26:37 61° SSW 20:32:05 10° ESE
Cosmos 1898 Rocket 4.4 20:22:07 10° N 20:26:54 33° ENE 20:31:36 10° SE
Okean 2 3.5 20:23:12 10° N 20:27:24 88° WSW 20:31:32 10° S
Cosmos 2227 Rocket 2.2 20:22:37 10° NNW 20:28:20 81° ENE 20:33:59 10° SSE
CZ-2D R/B 3.6 20:24:58 10° SSE 20:28:41 48° ENE 20:32:27 10° N
Resurs 01 Rocket 2.3 20:25:51 10° S 20:30:14 61° W 20:34:39 10° NNW
FengYun 1-2 T 4.3 20:26:26 10° SSE 20:32:04 90° WSW 20:37:43 10° NNW
Cosmos 1500 4.3 20:32:37 10° SE 20:35:39 23° E 20:38:41 10° NE
Meteor 1-12 Rocket 4.4 20:30:34 10° S 20:36:06 53° E 20:41:46 10° NNE
CZ-4 DEB 4.5 20:34:37 11° ESE 20:36:40 17° ENE 20:38:51 10° NNE
OAO 2 Rocket 4.1 20:35:06 10° WSW 20:39:39 36° S 20:43:53 12° ESE
Meteor 1-29 4.2 20:37:12 10° N 20:40:32 46° WNW 20:43:52 10° SSW
Cosmos 2297 Rocket 2.2 20:37:44 10° NNW 20:43:25 78° ENE 20:49:04 10° SSE
Cosmos 2082 3.8 20:38:33 10° NNW 20:44:12 81° WSW 20:49:49 10° SSE
ALOS 2.3 20:43:59 10° SSE 20:48:39 87° WSW 20:53:22 10° NNW
Cosmos 1346 Rocket 3.6 20:46:18 10° NNW 20:50:11 54° W 20:54:05 10° S
Cosmos 1939 Rocket 4.1 20:49:05 14° ESE 20:51:43 25° ENE 20:55:10 10° NNE
USA 186 1.4 20:52:36 10° SSE 20:55:40 85° ENE 20:58:32 10° N
OTV 4 2.8 20:54:56 10° WSW 20:56:46 15° SSW 20:58:28 10° SSE
Cosmos 1515 3.8 20:55:12 10° N 20:59:00 57° E 21:02:35 11° SSE
Cosmos 1461 4.5 20:59:23 10° NW 21:02:57 31° WSW 21:06:26 10° S
SL-24 R/B - RUBIN 2 4.4 20:58:22 10° SSW 21:04:13 86° SE 21:10:47 10° NE
Cosmos 2173 Rocket 4.3 21:01:19 10° SSE 21:07:17 44° E 21:13:14 10° NNE
Cosmos 1825 Rocket 4.4 21:03:41 10° N 21:07:40 32° ENE 21:09:42 22° ESE
Cosmos 1605 Rocket 4.4 21:06:31 10° SSW 21:12:49 68° W 21:19:04 10° N
Cosmos 1743 3.2 21:13:07 20° SSE 21:15:17 38° E 21:18:57 10° NNE
RESURS DK-1 2.4 21:13:28 10° NNW 21:17:36 60° ENE 21:19:38 28° SE
Tiangong 1 0.9 21:14:44 10° W 21:17:50 83° SSW 21:18:48 40° ESE
BREEZE-M DEB (TANK) 4.1 21:00:13 10° SW 21:18:05 69° SSE 21:22:26 14° ENE
Cosmos 1953 Rocket 4.4 21:14:37 10° NNE 21:18:37 31° ENE 21:19:56 26° ESE
Cosmos 1697 Rocket 2.6 21:13:31 10° SSW 21:19:09 77° ESE 21:24:49 10° NNE
Cosmos 1066 Rocket 4.2 21:14:42 10° N 21:20:25 78° E 21:25:46 12° SSE
H-2A R/B 2.7 21:20:46 28° ESE 21:21:58 33° ENE 21:25:43 10° N
Cosmos 2100 Rocket 4.0 21:16:18 10° S 21:22:29 64° E 21:28:38 10° NNE
Iridium 4 Rocket 3.4 21:18:30 10° N 21:23:32 76° W 21:28:05 10° S
Cosmos 1626 Rocket 4.4 21:20:40 10° NNW 21:24:56 51° W 21:29:09 10° SSW
Envisat 3.1 21:23:26 23° SE 21:26:30 59° ENE 21:31:30 10° N
Cosmos 2298 Rocket 4.3 21:22:01 10° NNW 21:27:19 71° WSW 21:31:50 14° S
YAOGAN 11 4.1 21:24:13 18° SSE 21:27:37 88° ENE 21:32:05 10° NNW
Cosmos 1937 Rocket 3.4 21:23:29 10° NNW 21:28:47 79° ENE 21:32:04 24° SSE
SL-16 R/B 3.7 21:31:23 18° ENE 21:31:23 18° ENE 21:33:46 10° NE
Cosmos 2084 4.0 21:26:49 10° NW 21:30:48 53° WSW 21:33:08 24° S
Cosmos 2061 Rocket 3.9 21:26:23 10° S 21:32:39 70° E 21:38:51 10° NNE
ARGOS 4.2 21:34:52 24° E 21:36:06 27° ENE 21:40:33 10° N
Cosmos 1758 Rocket 4.0 21:33:09 10° N 21:37:17 41° ENE 21:37:55 38° E
Cosmos 990 Rocket 3.9 21:34:24 10° NNW 21:39:40 73° ENE 21:42:00 33° SSE
Cosmos 1980 Rocket 2.1 21:37:01 10° SSW 21:42:40 73° ESE 21:48:22 10° NNE
Lacrosse 5 1.9 21:37:48 10° NW 21:42:51 72° SW 21:44:53 36° SSE
deb Chang Zheng 4 3.7 21:38:49 10° NNE 21:43:12 54° E 21:44:26 40° SSE
Cosmos 1842 3.9 21:42:39 10° N 21:46:02 38° ENE 21:46:02 38° ENE
H-2A R/B 3.7 21:46:51 17° ENE 21:46:55 17° ENE 21:49:57 10° NNE
MetOp-B 4.3 21:46:49 38° ESE 21:48:28 52° ENE 21:53:40 10° N
SPOT 5 2.9 21:49:22 43° SE 21:50:47 61° ENE 21:55:32 10° N
Cosmos 1459 Rocket 4.0 21:45:37 10° S 21:51:40 82° W 21:57:49 10° N
ERS-1 Rocket 3.3 21:48:21 20° S 21:51:49 63° WSW 21:56:49 10° NNW
Cosmos 1725 Rocket 4.1 21:53:16 36° SE 21:55:23 51° E 22:01:24 10° NNE
Lacrosse 5 rocket 3.7 21:55:06 10° W 21:56:23 12° WSW 21:57:40 10° SW
BREEZE-M TANK 2.8 21:48:20 10° WNW 21:57:19 68° SSW 21:58:04 53° SSE
Cosmos 1666 3.3 22:00:57 43° NE 22:00:57 43° NE 22:03:43 10° NNE
Cosmos 2058 Rocket 3.0 22:03:46 66° ESE 22:03:53 67° E 22:08:23 10° NNE
Cosmos 2098 Rocket 3.9 22:00:54 27° S 22:04:44 69° E 22:10:25 10° NNE
Cosmos 1763 Rocket 3.4 22:00:03 10° SSW 22:05:08 84° WNW 22:10:15 10° NNE
SPOT 1/Viking Rocket 3.8 22:05:15 48° E 22:05:49 50° ENE 22:10:52 10° N
Cosmos 1606 Rocket 3.8 22:06:33 33° SSW 22:08:24 69° W 22:12:51 10° N
Cosmos 2263 Rocket 3.2 22:03:47 10° N 22:08:37 29° NE 22:09:09 29° ENE
Terra 3.4 22:15:54 22° NE 22:15:54 22° NE 22:18:46 10° NNE
Meteor 1-15 Rocket 4.2 22:13:43 51° SSE 22:15:07 69° E 22:20:58 10° NNE
Cosmos 1125 Rocket 3.5 22:10:12 10° NNW 22:15:23 62° ENE 22:15:41 60° E
YAOGAN 6 3.2 22:16:13 55° NNW 22:16:13 55° NNW 22:19:12 10° NNW
Cosmos 2322 Rocket 2.4 22:16:55 49° E 22:16:55 49° E 22:21:36 10° NNE
Cosmos 2233 Rocket 4.2 22:19:10 48° E 22:19:14 48° E 22:25:12 10° NNE
Cosmos 1340 3.8 22:16:27 10° NNW 22:20:00 39° W 22:20:21 38° WSW
USA 215 4.0 22:18:44 29° ENE 22:21:25 43° NNE 22:27:31 10° NW
BREEZE-M DEB (TANK) 4.2 22:01:49 10° WNW 22:23:26 70° NNE 22:25:48 42° E
Meteor 2-9 Rocket 4.1 22:26:58 50° SSW 22:28:27 81° W 22:33:53 10° N
Cosmos 841 Rocket 3.9 22:23:29 10° SSW 22:28:39 60° WNW 22:33:49 10° NNE
Cosmos 2360 4.5 22:24:49 10° SSW 22:30:30 67° WNW 22:36:14 10° NNE
MetOp-A 4.5 22:33:48 49° SSW 22:34:54 59° W 22:40:12 10° NNW
Cosmos 540 Rocket 4.3 22:42:33 39° NE 22:42:33 39° NE 22:45:50 10° NNE
ASTEX 1 4.3 22:39:23 10° N 22:44:11 46° WNW 22:45:35 36° WSW
Cosmos 1375 Rocket 4.5 22:50:12 41° SW 22:52:43 86° WNW 22:59:23 10° NNE
BREEZE-M DEB (TANK) 4.4 22:52:31 10° WNW 22:53:27 22° W 22:53:27 22° W
Cosmos 372 Rocket 4.3 22:50:30 10° NNW 22:54:42 60° NNW 22:54:42 60° NNW
H-2A R/B 4.1 22:57:54 20° W 22:58:04 20° W 23:01:07 10° NW
SL-16 R/B 2.6 23:13:10 57° WNW 23:13:18 57° WNW 23:18:56 10° NNE
ARGOS 4.1 23:16:23 41° W 23:16:23 41° W 23:21:13 10° NNW
Cosmos 1844 Rocket 4.3 23:15:55 10° N 23:19:29 24° NE 23:19:29 24° NE
H-2A R/B 3.1 23:27:30 40° NW 23:27:30 40° NW 23:30:45 10° NNW
Cosmos 2360 Rocket 3.7 23:30:08 28° NNE 23:30:08 28° NNE 23:32:41 10° NNE
Terra 3.8 23:54:47 25° NW 23:54:47 25° NW 23:57:02 10° NNW
Cosmos 2263 Rocket 3.6 23:47:27 10° NW 23:50:51 32° WNW 23:50:51 32° WNW
